This is the latest recevied weather packets stored in our database for station/object VK2BLR. If no packets are shown the sender has not sent any weather packets the latest 10 day(s).
| Time | Temp. | Humidity | Pressure | Rain* | Wind** | Luminosity | Snow |
|---|---|---|---|---|---|---|---|
| 1787694691 | 13.33° C | 97% | 1018.9 hPa | 0 mm | - | - | - |
| 1787693792 | 13.33° C | 97% | 1018.8 hPa | 0 mm | - | - | - |
| 1787692891 | 13.33° C | 96% | 1018.7 hPa | 0 mm | - | - | - |
| 1787691992 | 12.78° C | 96% | 1018.4 hPa | 0 mm | - | - | - |
| 1787691092 | 12.78° C | 96% | 1018 hPa | 0 mm | - | - | - |
| 1787690192 | 12.78° C | 95% | 1017.8 hPa | 0 mm | - | - | - |
| 1787689291 | 12.22° C | 98% | 1017.5 hPa | 0 mm | - | - | - |
| 1787688392 | 12.22° C | 97% | 1017.2 hPa | 0 mm | - | - | - |
| 1787687492 | 12.22° C | 97% | 1016.9 hPa | 0 mm | - | - | - |
| 1787686592 | 12.22° C | 97% | 1016.8 hPa | 0 mm | - | - | - |
| 1787685691 | 12.22° C | 97% | 1016.6 hPa | 0 mm | - | - | - |
| 1787684790 | 12.78° C | 94% | 1016.5 hPa | 0 mm | - | - | - |
| 1787683892 | 12.78° C | 95% | 1016.4 hPa | 0 mm | - | - | - |
| 1787682992 | 13.33° C | 95% | 1016.2 hPa | 0 mm | - | - | - |
| 1787682091 | 13.33° C | 96% | 1016.1 hPa | 0 mm | - | - | - |
| 1787681190 | 13.89° C | 96% | 1016 hPa | 0 mm | - | - | - |
| 1787680292 | 13.89° C | 96% | 1016 hPa | 0 mm | - | - | - |
| 1787679392 | 13.89° C | 95% | 1016 hPa | 0 mm | - | - | - |
| 1787678491 | 13.89° C | 95% | 1015.9 hPa | 0 mm | - | - | - |
| 1787677591 | 13.89° C | 95% | 1015.9 hPa | 0 mm | - | - | - |
| 1787676691 | 13.89° C | 95% | 1015.9 hPa | 0 mm | - | - | - |
| 1787675791 | 13.89° C | 95% | 1015.9 hPa | 0 mm | - | - | - |
| 1787674891 | 13.89° C | 95% | 1015.9 hPa | 0 mm | - | - | - |
| 1787673991 | 13.89° C | 95% | 1016 hPa | 0 mm | - | - | - |
| 1787673092 | 13.89° C | 94% | 1016 hPa | 0 mm | - | - | - |
* Rain latest hour (hover to see other rain measurements)
** Current wind speed in m/s (hover to see current wind gust speed)